| time (UTC) | temp F | wind direction | speed MPH | gust MPH | rain 1hr in | rain 24hr in | rain mn in | humidity % | barometer mb |
| 20260508130502 | 44 | 198 | 0.0 | 0.0 | 0.00 | 0.00 | 0.00 | 95 | 1016.5 |
| 20260508130441 | 44 | 197 | 0.0 | 0.0 | 0.00 | 0.00 | 0.00 | 95 | 1016.5 |
| 20260508125450 | 44 | 197 | 0.0 | 0.0 | 0.00 | 0.00 | 0.00 | 95 | 1016.4 |
| 20260508124942 | 44 | 197 | 0.0 | 0.0 | 0.00 | 0.00 | 0.00 | 95 | 1016.3 |
| 20260508124430 | 44 | 197 | 0.0 | 0.0 | 0.00 | 0.00 | 0.00 | 95 | 1016.2 |
| 20260508123924 | 44 | 197 | 0.0 | 0.0 | 0.00 | 0.00 | 0.00 | 95 | 1016.2 |
| 20260508123418 | 44 | 197 | 0.0 | 0.0 | 0.00 | 0.00 | 0.00 | 95 | 1016.2 |
| 20260508123143 | 44 | 197 | 0.0 | 0.0 | 0.00 | 0.00 | 0.00 | 95 | 1016.2 |
| 20260508122406 | 44 | 197 | 0.0 | 0.0 | 0.00 | 0.00 | 0.00 | 95 | 1016.2 |
| 20260508121900 | 44 | 197 | 0.0 | 0.0 | 0.00 | 0.00 | 0.00 | 95 | 1016.1 |
| 20260508121401 | 44 | 197 | 0.0 | 1.0 | 0.00 | 0.00 | 0.00 | 95 | 1016.0 |
| 20260508120905 | 44 | 197 | 0.0 | 1.0 | 0.00 | 0.00 | 0.00 | 95 | 1016.0 |
| 20260508120402 | 44 | 197 | 0.0 | 0.0 | 0.00 | 0.00 | 0.00 | 95 | 1016.0 |
| 20260508115906 | 44 | 197 | 0.0 | 0.0 | 0.00 | 0.00 | 0.00 | 95 | 1016.0 |
| 20260508115849 | 44 | 197 | 0.0 | 0.0 | 0.00 | 0.00 | 0.00 | 95 | 1016.0 |
| 20260508114900 | 44 | 165 | 0.0 | 1.0 | 0.00 | 0.00 | 0.00 | 95 | 1015.9 |
| 20260508114357 | 44 | 164 | 0.0 | 1.0 | 0.00 | 0.00 | 0.00 | 95 | 1015.9 |
| 20260508113900 | 44 | 165 | 0.0 | 3.0 | 0.00 | 0.00 | 0.00 | 95 | 1015.9 |
| 20260508113359 | 44 | 142 | 0.0 | 3.0 | 0.00 | 0.00 | 0.00 | 95 | 1015.9 |
| 20260508112858 | 44 | 173 | 0.0 | 0.0 | 0.00 | 0.00 | 0.00 | 95 | 1015.9 |
| 20260508112356 | 44 | 175 | 0.0 | 0.0 | 0.00 | 0.00 | 0.00 | 95 | 1015.9 |
| 20260508111901 | 44 | 175 | 0.0 | 0.0 | 0.00 | 0.00 | 0.00 | 95 | 1015.9 |
| 20260508111845 | 44 | 202 | 0.0 | 0.0 | 0.00 | 0.00 | 0.00 | 95 | 1015.9 |
| 20260508111121 | 44 | 202 | 0.0 | 0.0 | 0.00 | 0.00 | 0.00 | 95 | 1015.8 |
| 20260508110355 | 44 | 202 | 0.0 | 0.0 | 0.00 | 0.00 | 0.00 | 95 | 1015.8 |
| 20260508105855 | 44 | 180 | 0.0 | 1.0 | 0.00 | 0.00 | 0.00 | 95 | 1015.8 |
| 20260508105355 | 44 | 180 | 0.0 | 1.0 | 0.00 | 0.00 | 0.00 | 95 | 1015.7 |
| 20260508104856 | 44 | 173 | 0.0 | 0.0 | 0.00 | 0.00 | 0.00 | 95 | 1015.6 |
| 20260508104356 | 44 | 186 | 0.0 | 0.0 | 0.00 | 0.00 | 0.00 | 95 | 1015.7 |
| 20260508103850 | 44 | 186 | 0.0 | 0.0 | 0.00 | 0.00 | 0.00 | 95 | 1015.6 |
| 20260508103343 | 44 | 186 | 0.0 | 0.0 | 0.00 | 0.00 | 0.00 | 95 | 1015.7 |
| 20260508102839 | 44 | 186 | 0.0 | 0.0 | 0.00 | 0.00 | 0.00 | 95 | 1015.5 |
| 20260508102555 | 44 | 192 | 0.0 | 0.0 | 0.00 | 0.01 | 0.00 | 95 | 1015.5 |
| 20260508101825 | 44 | 191 | 0.0 | 0.0 | 0.00 | 0.01 | 0.00 | 95 | 1015.6 |
| 20260508101321 | 44 | 191 | 0.0 | 0.0 | 0.00 | 0.01 | 0.00 | 95 | 1015.6 |
| 20260508100813 | 44 | 191 | 0.0 | 0.0 | 0.00 | 0.01 | 0.00 | 95 | 1015.6 |
| 20260508100307 | 44 | 191 | 0.0 | 0.0 | 0.00 | 0.01 | 0.00 | 95 | 1015.6 |
| 20260508095802 | 44 | 184 | 0.0 | 1.0 | 0.00 | 0.01 | 0.00 | 95 | 1015.6 |
| 20260508095255 | 44 | 201 | 0.0 | 1.0 | 0.00 | 0.02 | 0.00 | 95 | 1015.6 |
| 20260508094749 | 44 | 191 | 0.0 | 0.0 | 0.00 | 0.02 | 0.00 | 95 | 1015.6 |
| 20260508094506 | 44 | 191 | 0.0 | 0.0 | 0.00 | 0.02 | 0.00 | 95 | 1015.6 |
| 20260508093737 | 44 | 191 | 0.0 | 0.0 | 0.00 | 0.02 | 0.00 | 95 | 1015.6 |
| 20260508093500 | 44 | 191 | 0.0 | 0.0 | 0.00 | 0.02 | 0.00 | 95 | 1015.7 |
| 20260508092723 | 44 | 191 | 0.0 | 0.0 | 0.00 | 0.02 | 0.00 | 95 | 1015.7 |
| 20260508092438 | 44 | 191 | 0.0 | 0.0 | 0.00 | 0.02 | 0.00 | 95 | 1015.6 |
| 20260508091711 | 44 | 191 | 0.0 | 0.0 | 0.00 | 0.02 | 0.00 | 95 | 1015.6 |
| 20260508091427 | 44 | 191 | 0.0 | 0.0 | 0.00 | 0.02 | 0.00 | 95 | 1015.6 |
| 20260508090930 | 44 | 191 | 0.0 | 0.0 | 0.00 | 0.02 | 0.00 | 95 | 1015.6 |
| 20260508090155 | 44 | 192 | 0.0 | 0.0 | 0.00 | 0.02 | 0.00 | 95 | 1015.7 |
| 20260508085648 | 44 | 183 | 0.0 | 0.0 | 0.00 | 0.02 | 0.00 | 95 | 1015.6 |
| 20260508085141 | 44 | 182 | 0.0 | 0.0 | 0.00 | 0.02 | 0.00 | 95 | 1015.7 |
| 20260508084636 | 44 | 182 | 0.0 | 0.0 | 0.00 | 0.02 | 0.00 | 95 | 1015.7 |
| 20260508084130 | 44 | 182 | 0.0 | 0.0 | 0.00 | 0.02 | 0.00 | 95 | 1015.7 |
| 20260508083623 | 44 | 182 | 0.0 | 0.0 | 0.00 | 0.02 | 0.00 | 95 | 1015.7 |
| 20260508083117 | 44 | 182 | 0.0 | 0.0 | 0.00 | 0.02 | 0.00 | 95 | 1015.7 |
| 20260508082612 | 45 | 182 | 0.0 | 0.0 | 0.00 | 0.02 | 0.00 | 95 | 1015.7 |
| 20260508082340 | 45 | 183 | 0.0 | 0.0 | 0.00 | 0.02 | 0.00 | 95 | 1015.6 |
| 20260508081559 | 45 | 183 | 0.0 | 0.0 | 0.00 | 0.02 | 0.00 | 94 | 1015.8 |
| 20260508081053 | 45 | 183 | 0.0 | 0.0 | 0.00 | 0.02 | 0.00 | 94 | 1015.8 |
| 20260508080548 | 45 | 183 | 0.0 | 0.0 | 0.00 | 0.02 | 0.00 | 94 | 1015.8 |
| 20260508080042 | 45 | 183 | 0.0 | 0.0 | 0.00 | 0.02 | 0.00 | 94 | 1015.8 |
| 20260508075535 | 45 | 183 | 0.0 | 0.0 | 0.00 | 0.02 | 0.00 | 94 | 1015.8 |
| 20260508075029 | 45 | 169 | 0.0 | 0.0 | 0.00 | 0.02 | 0.00 | 94 | 1015.8 |
| 20260508074525 | 45 | 169 | 0.0 | 0.0 | 0.00 | 0.02 | 0.00 | 94 | 1015.7 |
| 20260508074017 | 45 | 225 | 0.0 | 0.0 | 0.00 | 0.02 | 0.00 | 94 | 1015.8 |
| 20260508073511 | 45 | 232 | 0.0 | 0.0 | 0.00 | 0.02 | 0.00 | 94 | 1015.8 |
| 20260508073005 | 45 | 233 | 0.0 | 0.0 | 0.00 | 0.02 | 0.00 | 94 | 1015.8 |
| 20260508072502 | 45 | 233 | 0.0 | 0.0 | 0.00 | 0.02 | 0.00 | 94 | 1015.8 |
| 20260508071955 | 45 | 233 | 0.0 | 0.0 | 0.00 | 0.02 | 0.00 | 94 | 1015.9 |
| 20260508071449 | 46 | 233 | 0.0 | 0.0 | 0.00 | 0.03 | 0.00 | 94 | 1015.9 |
| 20260508070945 | 46 | 233 | 0.0 | 0.0 | 0.00 | 0.03 | 0.00 | 94 | 1015.9 |
| 20260508070438 | 46 | 233 | 0.0 | 0.0 | 0.00 | 0.03 | 0.00 | 94 | 1015.9 |
| 20260508065931 | 46 | 233 | 0.0 | 0.0 | 0.00 | 0.03 | 0.03 | 94 | 1015.8 |
| 20260508065432 | 46 | 237 | 0.0 | 0.0 | 0.00 | 0.03 | 0.03 | 94 | 1015.9 |
| 20260508064931 | 46 | 237 | 0.0 | 0.0 | 0.00 | 0.03 | 0.03 | 94 | 1015.9 |
| 20260508064430 | 46 | 237 | 0.0 | 0.0 | 0.00 | 0.03 | 0.03 | 93 | 1016.0 |
| 20260508064424 | 46 | 237 | 0.0 | 0.0 | 0.00 | 0.03 | 0.03 | 94 | 1015.9 |
| 20260508063428 | 46 | 237 | 0.0 | 0.0 | 0.00 | 0.03 | 0.03 | 93 | 1015.9 |
| 20260508062930 | 46 | 237 | 0.0 | 0.0 | 0.00 | 0.03 | 0.03 | 93 | 1015.9 |
| 20260508062655 | 46 | 237 | 0.0 | 0.0 | 0.00 | 0.03 | 0.03 | 93 | 1016.0 |
| 20260508061929 | 47 | 237 | 0.0 | 0.0 | 0.00 | 0.03 | 0.03 | 93 | 1015.9 |
| 20260508061428 | 47 | 237 | 0.0 | 0.0 | 0.00 | 0.03 | 0.03 | 93 | 1015.9 |
| 20260508060945 | 47 | 237 | 0.0 | 0.0 | 0.00 | 0.03 | 0.03 | 93 | 1016.0 |
| 20260508060930 | 47 | 237 | 0.0 | 0.0 | 0.00 | 0.03 | 0.03 | 93 | 1015.9 |
| 20260508055923 | 47 | 237 | 0.0 | 0.0 | 0.00 | 0.03 | 0.03 | 92 | 1016.0 |
| 20260508055426 | 47 | 237 | 0.0 | 0.0 | 0.00 | 0.03 | 0.03 | 92 | 1015.9 |
| 20260508055201 | 47 | 237 | 0.0 | 0.0 | 0.00 | 0.03 | 0.03 | 92 | 1015.9 |
| 20260508054426 | 47 | 237 | 0.0 | 0.0 | 0.00 | 0.03 | 0.03 | 92 | 1015.9 |
| 20260508053923 | 47 | 237 | 0.0 | 0.0 | 0.00 | 0.03 | 0.03 | 91 | 1015.9 |
| 20260508053424 | 48 | 237 | 0.0 | 0.0 | 0.00 | 0.03 | 0.03 | 91 | 1016.0 |
| 20260508053157 | 48 | 237 | 0.0 | 0.0 | 0.00 | 0.03 | 0.03 | 91 | 1016.0 |
| 20260508051918 | 48 | 237 | 0.0 | 0.0 | 0.00 | 0.03 | 0.03 | 91 | 1016.0 |
| 20260508051413 | 49 | 237 | 0.0 | 0.0 | 0.00 | 0.03 | 0.03 | 90 | 1015.9 |
| 20260508050907 | 49 | 237 | 0.0 | 0.0 | 0.00 | 0.03 | 0.03 | 90 | 1015.9 |
| 20260508050636 | 49 | 237 | 0.0 | 0.0 | 0.00 | 0.03 | 0.03 | 90 | 1015.9 |
| 20260508050126 | 49 | 237 | 0.0 | 0.0 | 0.00 | 0.03 | 0.03 | 89 | 1015.9 |
| 20260508045355 | 49 | 237 | 0.0 | 0.0 | 0.00 | 0.03 | 0.03 | 89 | 1016.0 |
| 20260508044852 | 50 | 237 | 0.0 | 0.0 | 0.00 | 0.03 | 0.03 | 89 | 1016.1 |
| 20260508044351 | 50 | 237 | 0.0 | 0.0 | 0.00 | 0.03 | 0.03 | 89 | 1016.1 |
| 20260508043856 | 50 | 237 | 0.0 | 0.0 | 0.00 | 0.03 | 0.03 | 88 | 1016.0 |
| 20260508043352 | 51 | 237 | 0.0 | 0.0 | 0.00 | 0.03 | 0.03 | 88 | 1016.0 |
| 20260508042849 | 51 | 237 | 0.0 | 0.0 | 0.00 | 0.03 | 0.03 | 87 | 1016.0 |
| 20260508042609 | 51 | 237 | 0.0 | 0.0 | 0.00 | 0.03 | 0.03 | 86 | 1015.9 |
| 20260508041845 | 51 | 237 | 0.0 | 0.0 | 0.00 | 0.03 | 0.03 | 86 | 1015.9 |
| 20260508041605 | 52 | 237 | 0.0 | 0.0 | 0.00 | 0.03 | 0.03 | 86 | 1015.8 |
| 20260508041103 | 52 | 237 | 0.0 | 0.0 | 0.00 | 0.03 | 0.03 | 86 | 1015.9 |
| 20260508040338 | 53 | 237 | 0.0 | 0.0 | 0.00 | 0.03 | 0.03 | 85 | 1015.8 |
| 20260508035839 | 53 | 237 | 0.0 | 0.0 | 0.00 | 0.03 | 0.03 | 85 | 1015.8 |
| 20260508035338 | 53 | 237 | 0.0 | 0.0 | 0.00 | 0.03 | 0.03 | 84 | 1015.7 |
| 20260508034837 | 54 | 237 | 0.0 | 0.0 | 0.00 | 0.03 | 0.03 | 84 | 1015.7 |
| 20260508034333 | 54 | 237 | 0.0 | 0.0 | 0.00 | 0.03 | 0.03 | 83 | 1015.7 |
| 20260508033834 | 55 | 237 | 0.0 | 0.0 | 0.00 | 0.03 | 0.03 | 82 | 1015.6 |
| 20260508033338 | 55 | 237 | 0.0 | 0.0 | 0.00 | 0.03 | 0.03 | 83 | 1015.6 |
| 20260508033055 | 55 | 237 | 0.0 | 0.0 | 0.00 | 0.03 | 0.03 | 83 | 1015.6 |
| 20260508032333 | 56 | 237 | 0.0 | 0.0 | 0.00 | 0.03 | 0.03 | 82 | 1015.6 |
| 20260508032314 | 56 | 237 | 0.0 | 0.0 | 0.00 | 0.03 | 0.03 | 82 | 1015.5 |
| 20260508031327 | 56 | 237 | 0.0 | 0.0 | 0.00 | 0.03 | 0.03 | 81 | 1015.4 |
| 20260508030820 | 57 | 237 | 0.0 | 0.0 | 0.00 | 0.03 | 0.03 | 82 | 1015.4 |
| 20260508030316 | 57 | 237 | 0.0 | 0.0 | 0.00 | 0.03 | 0.03 | 81 | 1015.3 |
| 20260508025815 | 57 | 237 | 0.0 | 0.0 | 0.00 | 0.03 | 0.03 | 80 | 1015.4 |
| 20260508025318 | 58 | 237 | 0.0 | 0.0 | 0.00 | 0.03 | 0.03 | 80 | 1015.4 |
| 20260508024815 | 58 | 237 | 0.0 | 0.0 | 0.00 | 0.03 | 0.03 | 79 | 1015.5 |
| 20260508024313 | 59 | 238 | 0.0 | 0.0 | 0.00 | 0.03 | 0.03 | 78 | 1015.5 |
| 20260508023814 | 59 | 238 | 0.0 | 0.0 | 0.00 | 0.03 | 0.03 | 78 | 1015.5 |
| 20260508023311 | 59 | 238 | 0.0 | 0.0 | 0.00 | 0.03 | 0.03 | 78 | 1015.5 |
| 20260508022820 | 60 | 238 | 0.0 | 0.0 | 0.00 | 0.03 | 0.03 | 77 | 1015.5 |
| 20260508022317 | 60 | 237 | 0.0 | 0.0 | 0.00 | 0.03 | 0.03 | 77 | 1015.5 |
| 20260508021815 | 60 | 237 | 0.0 | 0.0 | 0.00 | 0.03 | 0.03 | 76 | 1015.5 |
| 20260508021307 | 61 | 237 | 0.0 | 0.0 | 0.00 | 0.03 | 0.03 | 76 | 1015.5 |
| 20260508020805 | 61 | 237 | 0.0 | 0.0 | 0.00 | 0.03 | 0.03 | 75 | 1015.4 |
| 20260508020303 | 61 | 237 | 0.0 | 0.0 | 0.00 | 0.03 | 0.03 | 73 | 1015.5 |
| 20260508015801 | 61 | 237 | 0.0 | 0.0 | 0.00 | 0.03 | 0.03 | 71 | 1015.5 |
| 20260508015301 | 61 | 237 | 0.0 | 0.0 | 0.00 | 0.03 | 0.03 | 69 | 1015.5 |
| 20260508015027 | 61 | 237 | 0.0 | 0.0 | 0.00 | 0.03 | 0.03 | 69 | 1015.5 |
| 20260508014535 | 62 | 237 | 0.0 | 0.0 | 0.00 | 0.03 | 0.03 | 68 | 1015.6 |
| 20260508013801 | 62 | 237 | 0.0 | 0.0 | 0.00 | 0.03 | 0.03 | 67 | 1015.7 |
| 20260508013259 | 62 | 237 | 0.0 | 0.0 | 0.00 | 0.03 | 0.03 | 65 | 1015.6 |
| 20260508012804 | 62 | 223 | 0.0 | 0.0 | 0.00 | 0.03 | 0.03 | 66 | 1015.8 |
| 20260508012259 | 62 | 223 | 0.0 | 0.0 | 0.00 | 0.03 | 0.03 | 66 | 1015.9 |
| 20260508011759 | 62 | 272 | 0.0 | 0.0 | 0.00 | 0.04 | 0.03 | 69 | 1016.0 |
| 20260508011250 | 62 | 272 | 0.0 | 0.0 | 0.00 | 0.04 | 0.03 | 70 | 1016.0 |
| 20260508010749 | 62 | 272 | 0.0 | 0.0 | 0.00 | 0.04 | 0.03 | 68 | 1015.9 |
| 20260508010233 | 62 | 273 | 0.0 | 0.0 | 0.00 | 0.04 | 0.03 | 65 | 1016.0 |
| 20260508005948 | 62 | 265 | 0.0 | 0.0 | 0.00 | 0.04 | 0.03 | 67 | 1016.0 |
| 20260508005225 | 62 | 265 | 0.0 | 0.0 | 0.00 | 0.04 | 0.03 | 66 | 1016.1 |
| 20260508004717 | 62 | 252 | 0.0 | 0.0 | 0.00 | 0.04 | 0.03 | 67 | 1016.1 |
| 20260508004210 | 62 | 248 | 0.0 | 0.0 | 0.00 | 0.04 | 0.03 | 65 | 1016.1 |
| 20260508004142 | 62 | 248 | 0.0 | 0.0 | 0.00 | 0.04 | 0.03 | 65 | 1016.2 |
| 20260508003200 | 62 | 248 | 0.0 | 0.0 | 0.00 | 0.04 | 0.03 | 64 | 1016.3 |
| 20260508002652 | 62 | 327 | 0.0 | 0.0 | 0.00 | 0.04 | 0.03 | 66 | 1016.2 |
| 20260508002146 | 63 | 285 | 0.0 | 0.0 | 0.00 | 0.04 | 0.03 | 66 | 1016.2 |
| 20260508001640 | 62 | 285 | 0.0 | 0.0 | 0.00 | 0.04 | 0.03 | 65 | 1016.2 |
| 20260508001136 | 62 | 285 | 0.0 | 0.0 | 0.00 | 0.04 | 0.03 | 63 | 1016.2 |
| 20260508000624 | 63 | 265 | 0.0 | 0.0 | 0.00 | 0.04 | 0.03 | 65 | 1016.2 |
| 20260508000123 | 63 | 89 | 0.0 | 0.0 | 0.00 | 0.04 | 0.03 | 66 | 1016.1 |
| 20260507235616 | 63 | 45 | 0.0 | 0.0 | 0.00 | 0.04 | 0.03 | 64 | 1016.2 |
| 20260507235115 | 63 | 330 | 0.0 | 0.0 | 0.00 | 0.04 | 0.03 | 64 | 1016.2 |
| 20260507234609 | 63 | 335 | 0.0 | 0.0 | 0.00 | 0.04 | 0.03 | 66 | 1016.2 |
| 20260507234108 | 63 | 295 | 0.0 | 0.0 | 0.00 | 0.04 | 0.03 | 64 | 1016.1 |
| 20260507233607 | 63 | 294 | 0.0 | 0.0 | 0.00 | 0.04 | 0.03 | 64 | 1016.2 |
| 20260507233107 | 63 | 294 | 0.0 | 1.0 | 0.00 | 0.04 | 0.03 | 66 | 1016.3 |
| 20260507232612 | 63 | 292 | 0.0 | 1.0 | 0.00 | 0.04 | 0.03 | 63 | 1016.4 |
| 20260507232556 | 63 | 301 | 0.0 | 0.0 | 0.00 | 0.04 | 0.03 | 63 | 1016.4 |
| 20260507231608 | 63 | 312 | 0.0 | 0.0 | 0.00 | 0.04 | 0.03 | 64 | 1016.3 |
| 20260507231107 | 64 | 318 | 0.0 | 4.0 | 0.00 | 0.04 | 0.03 | 65 | 1016.5 |
| 20260507230606 | 64 | 15 | 0.0 | 4.0 | 0.00 | 0.04 | 0.03 | 63 | 1016.5 |
| 20260507230332 | 64 | 36 | 0.0 | 1.0 | 0.00 | 0.04 | 0.03 | 65 | 1016.5 |
| 20260507225604 | 64 | 311 | 0.0 | 0.0 | 0.00 | 0.04 | 0.03 | 65 | 1016.6 |
| 20260507225103 | 64 | 159 | 0.0 | 0.0 | 0.00 | 0.04 | 0.03 | 65 | 1016.6 |
| 20260507224605 | 64 | 333 | 0.0 | 0.0 | 0.00 | 0.04 | 0.03 | 62 | 1016.6 |
| 20260507224103 | 64 | 171 | 0.0 | 0.0 | 0.00 | 0.04 | 0.03 | 63 | 1016.7 |
| 20260507223603 | 64 | 338 | 0.0 | 1.0 | 0.00 | 0.04 | 0.03 | 63 | 1016.7 |
| 20260507223103 | 64 | 348 | 0.0 | 1.0 | 0.00 | 0.04 | 0.03 | 64 | 1016.6 |
| 20260507222605 | 64 | 207 | 0.0 | 0.0 | 0.00 | 0.04 | 0.03 | 64 | 1016.6 |
| 20260507222104 | 64 | 178 | 0.0 | 0.0 | 0.00 | 0.04 | 0.03 | 63 | 1016.6 |
| 20260507221605 | 64 | 330 | 0.0 | 2.0 | 0.00 | 0.04 | 0.03 | 68 | 1016.7 |
| 20260507221102 | 63 | 270 | 0.0 | 4.0 | 0.00 | 0.04 | 0.03 | 67 | 1016.8 |
| 20260507220602 | 62 | 355 | 0.0 | 4.0 | 0.00 | 0.04 | 0.03 | 66 | 1016.9 |
| 20260507220105 | 62 | 149 | 0.0 | 0.0 | 0.00 | 0.04 | 0.03 | 70 | 1017.0 |
| 20260507215602 | 62 | 117 | 0.0 | 0.0 | 0.00 | 0.04 | 0.03 | 66 | 1017.0 |
| 20260507215100 | 62 | 198 | 0.0 | 1.0 | 0.00 | 0.04 | 0.03 | 70 | 1017.0 |
| 20260507214604 | 61 | 159 | 0.0 | 1.0 | 0.00 | 0.04 | 0.03 | 71 | 1017.0 |
| 20260507214321 | 61 | 144 | 0.0 | 0.0 | 0.00 | 0.04 | 0.03 | 69 | 1017.1 |
| 20260507213554 | 61 | 155 | 0.0 | 0.0 | 0.00 | 0.04 | 0.03 | 72 | 1017.2 |
| 20260507213055 | 61 | 340 | 0.0 | 0.0 | 0.00 | 0.04 | 0.03 | 69 | 1017.3 |
| 20260507212823 | 61 | 34 | 0.0 | 0.0 | 0.00 | 0.04 | 0.03 | 73 | 1017.3 |
| 20260507212053 | 61 | 39 | 0.0 | 0.0 | 0.00 | 0.04 | 0.03 | 74 | 1017.3 |
| 20260507211552 | 60 | 55 | 0.0 | 0.0 | 0.00 | 0.04 | 0.03 | 72 | 1017.3 |
| 20260507211054 | 60 | 74 | 0.0 | 0.0 | 0.00 | 0.04 | 0.03 | 70 | 1017.4 |
| 20260507210551 | 59 | 294 | 0.0 | 0.0 | 0.00 | 0.04 | 0.03 | 74 | 1017.5 |
| 20260507210051 | 58 | 294 | 0.0 | 0.0 | 0.00 | 0.04 | 0.03 | 74 | 1017.6 |
| 20260507205818 | 58 | 11 | 0.0 | 1.0 | 0.00 | 0.04 | 0.03 | 74 | 1017.7 |
| 20260507205101 | 58 | 306 | 0.0 | 1.0 | 0.00 | 0.04 | 0.03 | 75 | 1017.8 |
| 20260507204554 | 57 | 102 | 0.0 | 0.0 | 0.00 | 0.04 | 0.03 | 74 | 1017.8 |
| 20260507204047 | 57 | 304 | 0.0 | 1.0 | 0.00 | 0.04 | 0.03 | 76 | 1017.9 |
| 20260507203538 | 57 | 197 | 0.0 | 1.0 | 0.00 | 0.04 | 0.03 | 77 | 1018.0 |
| 20260507203035 | 57 | 229 | 0.0 | 1.0 | 0.00 | 0.04 | 0.03 | 75 | 1018.1 |
| 20260507202529 | 57 | 53 | 0.0 | 5.0 | 0.00 | 0.04 | 0.03 | 76 | 1018.3 |
| 20260507202024 | 57 | 84 | 0.0 | 5.0 | 0.00 | 0.04 | 0.03 | 75 | 1018.1 |
| 20260507201519 | 56 | 111 | 0.0 | 0.0 | 0.00 | 0.04 | 0.03 | 80 | 1018.3 |
| 20260507201008 | 56 | 290 | 0.0 | 0.0 | 0.00 | 0.04 | 0.03 | 81 | 1018.3 |
| 20260507200504 | 55 | 164 | 0.0 | 1.0 | 0.00 | 0.04 | 0.03 | 81 | 1018.4 |
| 20260507195955 | 55 | 185 | 0.0 | 1.0 | 0.00 | 0.04 | 0.03 | 81 | 1018.4 |
| 20260507195720 | 55 | 126 | 0.0 | 0.0 | 0.00 | 0.04 | 0.03 | 80 | 1018.5 |
| 20260507194949 | 54 | 134 | 0.0 | 0.0 | 0.00 | 0.04 | 0.03 | 83 | 1018.5 |
| 20260507194442 | 54 | 49 | 0.0 | 0.0 | 0.00 | 0.04 | 0.03 | 83 | 1018.6 |
| 20260507193935 | 54 | 82 | 0.0 | 0.0 | 0.00 | 0.04 | 0.03 | 82 | 1018.6 |
| 20260507193432 | 54 | 292 | 0.0 | 0.0 | 0.00 | 0.04 | 0.03 | 83 | 1018.6 |
| 20260507192923 | 53 | 164 | 0.0 | 0.0 | 0.00 | 0.04 | 0.03 | 85 | 1018.7 |
| 20260507192418 | 53 | 148 | 0.0 | 0.0 | 0.00 | 0.04 | 0.03 | 84 | 1018.7 |
| 20260507191912 | 53 | 120 | 0.0 | 1.0 | 0.00 | 0.04 | 0.03 | 86 | 1018.8 |
| 20260507191406 | 53 | 155 | 0.0 | 1.0 | 0.00 | 0.04 | 0.03 | 86 | 1018.7 |
| 20260507190856 | 52 | 192 | 0.0 | 0.0 | 0.00 | 0.04 | 0.03 | 85 | 1018.7 |
| 20260507190354 | 52 | 176 | 0.0 | 0.0 | 0.00 | 0.04 | 0.03 | 86 | 1018.9 |
| 20260507185847 | 52 | 138 | 0.0 | 0.0 | 0.00 | 0.04 | 0.03 | 85 | 1018.9 |
| 20260507185341 | 52 | 148 | 0.0 | 0.0 | 0.00 | 0.04 | 0.03 | 87 | 1018.9 |
| 20260507184837 | 52 | 219 | 0.0 | 0.0 | 0.00 | 0.04 | 0.03 | 86 | 1018.9 |
| 20260507184548 | 52 | 195 | 0.0 | 0.0 | 0.00 | 0.04 | 0.03 | 87 | 1019.0 |
| 20260507183823 | 52 | 166 | 0.0 | 0.0 | 0.00 | 0.04 | 0.03 | 87 | 1019.0 |
| 20260507183317 | 52 | 148 | 0.0 | 0.0 | 0.00 | 0.04 | 0.03 | 88 | 1019.0 |
| 20260507182813 | 51 | 185 | 0.0 | 5.0 | 0.00 | 0.04 | 0.03 | 87 | 1019.0 |
| 20260507182306 | 51 | 159 | 0.0 | 5.0 | 0.00 | 0.04 | 0.03 | 87 | 1019.0 |
| 20260507181759 | 51 | 144 | 0.0 | 4.0 | 0.00 | 0.04 | 0.03 | 87 | 1019.0 |
| 20260507181253 | 51 | 197 | 0.0 | 2.0 | 0.00 | 0.04 | 0.03 | 87 | 1019.0 |
| 20260507180748 | 51 | 205 | 0.0 | 2.0 | 0.00 | 0.04 | 0.03 | 87 | 1019.0 |
| 20260507180243 | 51 | 209 | 0.0 | 1.0 | 0.00 | 0.04 | 0.03 | 88 | 1018.9 |
| 20260507175732 | 51 | 209 | 0.0 | 1.0 | 0.00 | 0.04 | 0.03 | 88 | 1019.0 |
| 20260507175229 | 51 | 143 | 0.0 | 4.0 | 0.00 | 0.04 | 0.03 | 87 | 1019.0 |
| 20260507174722 | 51 | 138 | 0.0 | 5.0 | 0.00 | 0.04 | 0.03 | 88 | 1019.1 |
| 20260507174219 | 51 | 105 | 0.0 | 6.0 | 0.00 | 0.04 | 0.03 | 87 | 1019.2 |
| 20260507173708 | 51 | 130 | 0.0 | 6.0 | 0.00 | 0.04 | 0.03 | 86 | 1019.2 |
| 20260507173205 | 51 | 196 | 0.0 | 3.0 | 0.00 | 0.04 | 0.03 | 87 | 1019.1 |
| 20260507172659 | 51 | 196 | 0.0 | 2.0 | 0.00 | 0.04 | 0.03 | 87 | 1019.1 |
| 20260507172151 | 51 | 135 | 0.0 | 0.0 | 0.00 | 0.04 | 0.03 | 88 | 1019.1 |
| 20260507171649 | 51 | 127 | 0.0 | 0.0 | 0.00 | 0.04 | 0.03 | 86 | 1019.0 |
| 20260507171143 | 51 | 159 | 0.0 | 0.0 | 0.00 | 0.04 | 0.03 | 87 | 1019.0 |
| 20260507170643 | 51 | 147 | 0.0 | 2.0 | 0.00 | 0.04 | 0.03 | 87 | 1019.0 |
| 20260507170142 | 51 | 204 | 0.0 | 2.0 | 0.00 | 0.04 | 0.03 | 87 | 1018.9 |
| 20260507165643 | 51 | 221 | 0.0 | 2.0 | 0.00 | 0.04 | 0.03 | 87 | 1018.9 |
| 20260507165633 | 50 | 146 | 0.0 | 7.0 | 0.00 | 0.04 | 0.03 | 86 | 1018.9 |
| 20260507164643 | 50 | 190 | 0.0 | 7.0 | 0.00 | 0.04 | 0.03 | 87 | 1018.8 |
| 20260507164635 | 50 | 154 | 0.0 | 3.0 | 0.00 | 0.04 | 0.03 | 87 | 1018.9 |
| 20260507163643 | 50 | 196 | 0.0 | 3.0 | 0.00 | 0.04 | 0.03 | 87 | 1018.9 |
| 20260507163140 | 50 | 219 | 0.0 | 10.0 | 0.00 | 0.04 | 0.03 | 87 | 1018.9 |
| 20260507162643 | 50 | 132 | 0.0 | 10.0 | 0.00 | 0.04 | 0.03 | 87 | 1018.9 |
| 20260507162141 | 50 | 166 | 0.0 | 0.0 | 0.00 | 0.04 | 0.03 | 87 | 1019.0 |
| 20260507161639 | 50 | 138 | 0.0 | 2.0 | 0.00 | 0.04 | 0.03 | 87 | 1018.9 |
| 20260507161625 | 50 | 217 | 0.0 | 2.0 | 0.00 | 0.04 | 0.03 | 87 | 1018.9 |
| 20260507160637 | 50 | 202 | 0.0 | 0.0 | 0.00 | 0.04 | 0.03 | 87 | 1018.9 |
| 20260507160359 | 50 | 233 | 0.0 | 2.0 | 0.00 | 0.04 | 0.03 | 87 | 1018.9 |
| 20260507155634 | 50 | 127 | 0.0 | 2.0 | 0.00 | 0.04 | 0.03 | 87 | 1018.9 |
| 20260507155357 | 50 | 126 | 0.0 | 1.0 | 0.00 | 0.04 | 0.03 | 87 | 1018.9 |
| 20260507154634 | 50 | 174 | 0.0 | 2.0 | 0.00 | 0.04 | 0.03 | 87 | 1018.9 |
| 20260507154138 | 49 | 141 | 0.0 | 2.0 | 0.00 | 0.04 | 0.03 | 87 | 1018.9 |
| 20260507154119 | 49 | 245 | 0.0 | 6.0 | 0.00 | 0.04 | 0.03 | 87 | 1018.9 |
| 20260507153141 | 49 | 188 | 0.0 | 6.0 | 0.00 | 0.04 | 0.03 | 87 | 1018.9 |
| 20260507152903 | 49 | 232 | 0.0 | 1.0 | 0.00 | 0.04 | 0.03 | 88 | 1018.9 |
| 20260507152136 | 49 | 134 | 0.0 | 0.0 | 0.00 | 0.04 | 0.03 | 87 | 1018.9 |
| 20260507151641 | 49 | 196 | 0.0 | 0.0 | 0.00 | 0.04 | 0.03 | 87 | 1019.0 |
| 20260507151408 | 49 | 194 | 0.0 | 0.0 | 0.00 | 0.04 | 0.03 | 87 | 1019.0 |
| 20260507150638 | 49 | 175 | 0.0 | 0.0 | 0.00 | 0.04 | 0.03 | 87 | 1019.0 |
| 20260507150136 | 49 | 150 | 0.0 | 0.0 | 0.00 | 0.04 | 0.03 | 87 | 1018.9 |
| 20260507145632 | 49 | 197 | 0.0 | 0.0 | 0.00 | 0.04 | 0.03 | 88 | 1019.0 |
| 20260507145131 | 49 | 219 | 0.0 | 0.0 | 0.00 | 0.04 | 0.03 | 88 | 1019.0 |
| 20260507144631 | 49 | 118 | 0.0 | 0.0 | 0.00 | 0.04 | 0.03 | 88 | 1019.0 |
| 20260507144127 | 49 | 102 | 0.0 | 0.0 | 0.00 | 0.04 | 0.03 | 87 | 1019.0 |
| 20260507143629 | 49 | 140 | 0.0 | 0.0 | 0.00 | 0.04 | 0.03 | 88 | 1019.0 |
| 20260507143126 | 49 | 130 | 0.0 | 0.0 | 0.00 | 0.04 | 0.03 | 88 | 1019.0 |
| 20260507142625 | 49 | 130 | 0.0 | 0.0 | 0.00 | 0.04 | 0.03 | 89 | 1019.1 |
| 20260507142125 | 49 | 219 | 0.0 | 0.0 | 0.00 | 0.04 | 0.03 | 90 | 1019.1 |
| 20260507141629 | 49 | 219 | 0.0 | 0.0 | 0.00 | 0.04 | 0.03 | 88 | 1019.1 |
| 20260507141347 | 49 | 355 | 0.0 | 0.0 | 0.00 | 0.04 | 0.03 | 89 | 1019.0 |
| 20260507140619 | 49 | 193 | 0.0 | 0.0 | 0.00 | 0.04 | 0.03 | 90 | 1019.0 |
| 20260507140111 | 49 | 193 | 0.0 | 0.0 | 0.00 | 0.04 | 0.03 | 90 | 1019.0 |
| 20260507135813 | 49 | 143 | 0.0 | 0.0 | 0.00 | 0.04 | 0.03 | 91 | 1018.9 |
| 20260507135653 | 49 | 193 | 0.0 | 0.0 | 0.00 | 0.04 | 0.03 | 90 | 1018.9 |
| 20260507135155 | 49 | 207 | 0.0 | 0.0 | 0.00 | 0.04 | 0.03 | 90 | 1018.9 |
| 20260507134047 | 49 | 136 | 0.0 | 0.0 | 0.00 | 0.04 | 0.03 | 91 | 1018.8 |
| 20260507133541 | 49 | 177 | 0.0 | 0.0 | 0.00 | 0.04 | 0.03 | 91 | 1018.7 |
| 20260507133036 | 49 | 134 | 0.0 | 0.0 | 0.00 | 0.04 | 0.03 | 91 | 1018.7 |
| 20260507132531 | 49 | 159 | 0.0 | 0.0 | 0.00 | 0.04 | 0.03 | 91 | 1018.7 |
| 20260507132023 | 49 | 103 | 0.0 | 0.0 | 0.00 | 0.04 | 0.03 | 92 | 1018.8 |
| 20260507131517 | 49 | 104 | 0.0 | 0.0 | 0.00 | 0.04 | 0.03 | 93 | 1018.8 |
| 20260507131010 | 49 | 104 | 0.0 | 0.0 | 0.00 | 0.04 | 0.03 | 92 | 1018.8 |